Probability
0 0 0 0 0 0 0 0 0 0 0 0 0 0 0 0 0 0 0 0 0 0 0 0 0 0 0 0 0 0 0 0 0 0 0 0 0 0 0 0 0 0 0
0 0 0 0 0 0 0 0 0 0 0 0 0 0 0 0 0 0 0 0 0 0 0 0 0 0 0 0 0 0 0 0 0 0 0 0 0 0 0 0 0 0 0
0 0 0 0 0 0 0 0 0 0 0 0 0 0 0 0 0 0 0 0 0 0 0 0 0 0 0 0 0 0 0 0 0 0 0 0 0 0 0 0 0 0 0
0 0 0 0 0 0 0 0 0 0 0 0 0 0 0 0 0 0 0 0 0 0 0 0 0 0 0 0 0 0 0 0 0 0 0 0 0 0 0 0 0 0 0
0 0 0 0 0 0 0 0 0 0 0 0 0 0 0 0 0 0 0 0 0 0 0 0 0 0 0 0 0 0 0 0 0 0 0 0 0 0 0 0 0 0 0
0 0 0 0 0 0 0 0 0 0 0 0 0 0 0 0 0 0 0 0 0 0 0 0 0 0 0 0 0 0 0 0 0 0 0 0 0 0 0 0 0 0 0
0 0 0 0 0 0 0 0 0 0 0 0 0 0 0 0 0 0 0 0 0 0 0 0 0 0 0 0 0 0 0 0 0 0 0 0 0 0 0 0 0 0 0
0 0 0 0 0 0 0 0 0 0 0 0 0 0 0 0 0 0 0 0 0 0 0 0 0 0 0 0 0 0 0 0 0 0 0 0 0 0 0 0 0 0 0
0 0 0 0 0 0 0 0 0 0 0 0 0 0 0 0 0 0 0 0 0 0 0 0 0 0 0 0 0 0 0 0 0 0 0 0 0 0 0 0 0 0 0
0 0 0 0 0 0 0 0 0 0 0 0 0 0 0 0 0 0 0 0 0 0 0 0 0 0 0 0 0 0 0 0 0 0 0 0 0 0 0 0 0 0 0
0 0 0 0 0 0 0 0 0 0 0 0 0 0 0 0 0 0 0 0 0 0 0 0 0 0 0 0 0 0 0 0 0 0 0 0 0 0 0 0 0 0 0
0 0 0 0 0 0 0 0 0 0 0 0 0 0 0 0 0 0 0 0 0 0 0 0 0 0 0 0 0 0 0 0 0 0 0 0 0 0 0 0 0 0 0
0 0 0 0 0 0 0 0 0 0 0 0 0 0 0 0 0 0 0 0 0 0 0 0 0 0 0 0 0 0 0 0 0 0 0 0 0 0 0 0 0 0 0
0 0 0 0 0 0 0 0 0 0 0 0 0 0 0 0 0 0 0 0 0 0 0 0 0 0 0 0 0 0 0 0 0 0 0 0 0 0 0 0 0 0 0
0 0 0 0 0 0 0 0 0 0 0 0 0 0 0 0 0 0 0 0 0 0 0 0 0 0 0 0 0 0 0 0 0 0 0 0 0 0 0 0 0 0 0
0 0 0 0 0 0 0 0 0 0 0 0 0 0 0 0 0 0 0 0 0 0 0 0 0 0 0 0 0 0 0 0 0 0 0 0 0 0 0 0 0 0 0
0 0 0 0 0 0 0 0 0 0 0 0 0 0 0 0 0 0 0 0 0 0 0 0 0 0 0 0 0 0 0 0 0 0 0 0 0 0 0 0 0 0 0
0 0 0 0 0 0 0 0 0 0 0 0 0 0 0 0 0 0 0 0 0 0 0 0 0 0 0 0 0 0 0 0 0 0 0 0 0 0 0 0 0 0 0
0 0 0 0 0 0 0 0 0 0 0 0 0 0 0 0 0 0 0 0 0 0 0 0 0 0 0 0 0 0 0 0 0 0 0 0 0 0 0 0 0 0 0
0 0 0 0 0 0 0 0 0 0 0 0 0 0 0 0 0 0 0 0 0 0 0 0 0 0 0 0 0 0 0 0 0 0 0 0 0 0 0 0 0 0 0
0 0 0 0 0 0 0 0 0 0 0 0 0 0 0 0 0 0 0 0 0 0 0 0 0 0 0 0 0 0 0 0 0 0 0 0 0 0 0 0 0 0 0
0 0 0 0 0 0 0 0 0 0 0 0 0 0 0 0 0 0 0 0 0 0 0 0 0 0 0 0 0 0 0 0 0 0 0 0 0 0 0 0 0 0 0
0 0 0 0 0 0 0 0 0 0 0 0 0 0 0 0 0 0 0 0 0 0 0 0 0 0 0 0 0 0 0 0 0 0 0 0 0 0 0 0 0 0 0
0 0 0 0 0 0 0 0 0 0 0 0 0 0 0 0 0 0 0 0 0 0 0 0 0 0 0 0 0 0 0 0 0 0 0 0 0 0 0 0 0 0 0
0 0 0 0 0 0 0 0 0 0 0 0 0 0 0 0 0 0 0 0 0 0 0 0 0 0 0 0 0 0 0 0 0 0 0 0 0 0 0 0 0 0 0
0 0 0 0 0 0 0 0 0 0 0 0 0 0 0 0 0 0 0 0 0 0 0 0 0 0 0 0 0 0 0 0 0 0 0 0 0 0 0 0 0 0 0
Wind_Speed
10 9 9 8 7 7 6 6 5 4 3 3 3 3 4 4 5 5 5 6 7 7 7 8 9 9 8 8 8 9 9 10 15 15 13 14 18 17 14 13 13 14 13
10 9 9 8 7 7 6 5 4 4 3 2 1 2 3 4 5 5 6 7 7 8 9 9 10 9 11 10 9 10 10 11 14 19 16 14 17 17 17 17 14 13 13
10 10 9 9 8 7 6 5 4 3 3 1 0 2 3 4 5 5 6 7 8 9 9 10 11 11 12 10 12 12 11 11 12 15 17 14 13 13 16 16 16 14 14
11 10 10 9 8 7 6 6 5 4 3 1 1 2 3 4 5 6 7 8 9 9 9 10 11 11 12 13 12 13 12 13 13 14 15 14 13 14 13 13 13 12 12
12 11 10 9 7 7 7 6 5 4 3 2 2 2 3 4 4 7 8 9 10 11 11 10 11 12 15 14 12 13 14 13 13 13 14 15 13 12 12 12 14 14 14
13 12 9 8 8 8 7 6 5 4 3 3 3 3 4 4 7 11 11 10 10 11 12 11 12 12 13 18 20 20 19 16 15 14 14 15 17 15 14 13 14 15 15
12 10 9 9 9 8 7 6 6 5 4 4 4 4 5 6 9 11 13 11 11 11 11 11 10 11 14 14 17 20 19 21 22 18 18 18 18 16 16 17 15 16 17
11 10 9 9 9 8 7 7 6 4 4 4 4 5 6 7 10 12 14 11 10 11 11 12 13 14 13 16 16 17 17 17 19 17 17 18 18 17 17 18 18 19 18
11 11 11 10 10 9 8 7 6 5 5 4 5 5 6 7 10 12 13 9 9 11 11 12 14 15 19 23 19 18 19 17 20 25 27 27 30 30 25 16 15 15 16
13 11 10 10 10 10 9 7 5 5 5 5 5 5 7 8 10 12 12 7 8 9 10 11 14 16 21 24 19 18 20 18 18 18 20 22 21 21 24 18 15 14 16
8 8 9 9 9 8 7 6 5 5 4 5 6 6 7 8 10 11 11 7 8 10 10 10 11 20 24 26 25 18 21 22 18 16 15 14 13 12 13 13 13 13 15
8 9 9 8 7 7 7 6 5 5 5 6 6 6 5 6 8 9 12 13 13 11 10 10 12 22 26 27 21 21 26 21 12 11 12 12 12 11 11 13 15 15 16
9 9 8 8 7 7 7 7 5 5 5 5 5 5 4 4 6 11 12 14 15 11 10 16 19 22 22 17 18 22 17 10 10 10 11 11 11 12 13 13 14 14 16
10 9 8 8 8 7 6 6 6 6 6 5 5 5 5 5 5 5 6 8 10 10 8 9 14 16 14 13 12 11 8 8 9 10 11 11 11 12 12 11 12 11 12
9 9 8 8 7 7 7 6 7 6 6 6 5 5 5 6 7 11 10 8 7 7 6 5 6 7 7 8 8 8 8 9 9 9 10 11 11 11 11 11 11 11 12
9 9 7 7 6 6 6 5 11 11 13 15 15 12 10 12 14 14 15 15 12 9 5 5 6 6 7 8 9 9 9 9 9 10 10 11 11 12 12 12 11 11 12
9 8 6 6 6 6 5 5 5 6 10 13 13 14 13 13 14 14 14 11 6 5 3 4 5 6 7 7 8 9 10 10 10 10 11 11 11 12 12 12 12 12 12
7 7 6 5 5 5 5 5 5 5 5 5 6 10 12 13 13 13 11 5 3 2 3 5 5 6 7 7 8 8 9 10 10 10 11 11 11 12 12 12 12 13 13
6 5 5 4 4 4 4 4 4 5 6 5 4 5 6 9 10 10 5 2 4 4 4 5 6 6 7 7 8 8 9 10 10 10 11 12 11 12 12 12 13 16 15
5 6 5 4 4 4 4 5 5 5 6 6 6 5 3 3 4 4 4 4 4 5 5 6 6 6 7 7 8 8 8 9 10 10 10 11 11 11 13 14 13 13 12
4 5 6 4 4 4 4 5 5 5 6 6 6 7 9 6 6 6 5 5 5 6 6 6 6 7 7 7 7 8 10 9 9 10 10 11 11 12 11 12 13 12 12
3 4 4 4 4 4 4 5 5 6 7 8 7 7 10 7 6 6 6 6 6 6 6 6 6 7 6 7 7 8 9 9 9 9 10 11 11 11 11 11 11 12 11
3 4 4 4 4 4 5 5 6 6 7 7 7 6 6 6 6 7 7 6 6 6 6 6 7 7 7 7 7 8 9 10 9 10 11 12 11 11 10 11 13 13 12
3 4 4 4 4 4 5 6 6 7 7 7 7 7 7 7 7 7 7 6 6 6 6 6 7 10 12 10 8 8 9 10 11 10 13 12 11 10 10 10 11 12 11
3 4 4 4 4 5 5 6 7 7 7 7 7 7 7 7 7 7 7 6 7 7 8 8 7 8 11 12 12 11 13 16 14 11 11 9 9 9 9 10 9 10 9
4 4 4 4 5 5 6 6 7 7 7 7 7 7 7 7 7 7 7 6 6 7 8 7 9 10 12 11 13 14 15 16 16 14 9 6 6 6 7 7 9 8 9
Wind_Direction
161 156 153 151 149 146 140 134 127 118 103 81 52 27 12 2 353 344 339 332 327 323 321 316 311 310 304 302 298 290 284 282 283 288 289 295 297 296 296 293 291 289 287
172 169 166 162 162 160 152 145 141 135 121 93 47 8 355 345 340 333 328 325 321 319 318 314 312 312 307 303 298 294 291 287 285 290 293 295 294 296 296 293 291 286 283
181 179 177 177 176 172 164 159 157 154 147 130 354 338 333 330 326 322 318 316 314 311 311 309 310 310 306 305 303 297 294 292 288 288 291 294 293 293 295 293 292 287 284
189 190 190 188 184 178 170 167 168 171 175 186 273 307 314 315 310 314 313 310 307 306 305 304 303 303 303 305 302 299 298 297 293 289 289 293 294 296 295 295 295 295 293
194 198 199 190 181 175 174 175 176 180 185 212 253 279 295 298 304 312 311 308 307 305 303 300 299 299 297 295 294 299 300 297 296 292 290 293 295 300 299 301 296 298 294
199 202 195 184 179 181 180 179 184 190 198 219 240 266 283 286 298 305 308 306 303 301 301 302 300 296 294 297 297 296 294 292 292 291 289 289 294 297 298 296 297 295 294
198 197 190 185 185 185 181 186 195 201 210 230 247 261 273 282 294 302 305 303 297 294 296 297 297 296 298 296 297 296 293 287 283 283 284 285 290 293 294 292 288 287 286
195 196 192 188 189 183 186 197 199 203 218 238 250 262 271 277 292 300 303 297 290 289 290 291 292 294 295 297 296 292 289 285 282 278 276 279 281 282 280 281 282 282 281
198 200 195 190 186 185 194 199 199 206 222 236 245 254 265 278 290 297 298 294 287 289 289 287 288 291 294 298 297 294 292 288 286 281 277 277 277 278 278 279 280 281 282
205 201 190 184 185 189 193 191 195 207 227 240 249 255 264 271 282 290 295 288 288 291 290 289 288 290 296 299 298 295 294 294 294 292 287 284 281 279 278 273 273 274 278
190 176 176 180 184 183 179 184 189 209 229 243 254 257 257 261 274 283 287 284 287 293 295 297 297 300 302 303 303 299 299 304 304 301 298 293 289 284 280 274 269 267 271
166 172 174 173 174 170 174 183 195 209 228 241 250 258 250 252 261 275 283 287 292 292 293 296 299 306 309 311 311 307 311 314 307 301 295 292 291 290 288 285 280 275 271
166 172 170 168 174 174 182 190 199 207 227 238 242 254 258 256 264 276 285 289 291 290 290 298 307 313 316 315 312 314 317 311 306 301 297 296 297 297 296 291 285 279 275
173 176 172 176 183 185 197 201 206 210 220 230 237 248 258 263 265 270 275 283 289 292 299 309 315 315 316 314 314 317 314 308 306 300 299 300 301 299 294 293 290 287 282
177 177 181 187 191 193 203 211 215 222 224 228 234 239 251 262 264 276 285 290 296 304 323 317 313 317 319 320 319 317 314 312 309 306 304 303 302 300 298 297 293 289 283
179 184 186 188 189 198 207 224 235 240 245 248 250 249 252 260 276 282 288 294 307 325 326 303 304 307 310 315 316 316 316 314 313 309 304 302 303 303 302 300 295 291 287
186 182 182 186 189 197 206 219 237 240 250 259 262 267 270 275 279 283 287 299 323 341 297 281 286 294 299 302 304 305 307 309 309 304 303 304 304 303 302 301 299 295 290
184 178 181 185 191 198 208 218 229 240 251 252 256 268 274 276 278 280 288 307 290 284 263 272 278 284 288 292 295 298 300 303 304 303 303 303 304 304 304 302 300 299 297
179 178 181 184 192 202 212 221 229 236 246 257 266 271 270 283 283 275 283 258 265 267 262 265 270 277 281 284 287 290 293 296 298 301 300 302 305 306 305 303 300 298 297
180 182 178 185 194 203 210 220 230 237 246 250 254 259 263 261 252 251 239 240 248 255 259 263 268 271 276 280 283 287 291 293 297 297 301 304 307 308 306 305 303 302 301
171 178 184 195 206 212 217 226 235 242 247 253 254 253 249 248 255 255 252 246 246 252 257 263 269 272 272 274 278 283 287 289 292 296 300 306 310 310 308 306 305 304 304
170 179 190 205 215 223 229 235 240 246 253 258 262 266 270 263 255 253 252 250 247 247 252 259 265 266 268 271 276 281 284 286 290 296 302 305 308 310 311 310 311 313 312
178 188 197 210 222 229 237 241 243 247 252 255 259 259 255 248 247 249 252 253 252 251 249 248 258 264 264 262 265 268 273 278 285 293 297 299 306 312 313 314 315 318 321
187 202 213 221 227 234 241 247 247 249 252 254 254 254 253 252 251 253 254 255 254 255 251 247 252 260 268 273 271 267 266 272 279 281 285 290 301 307 311 314 316 320 323
197 211 224 232 237 243 249 254 255 255 254 253 253 253 253 253 254 256 255 254 257 258 260 259 257 261 267 271 273 275 278 282 282 280 280 284 294 303 309 313 318 324 330
213 222 231 236 241 245 249 255 258 259 258 256 255 254 254 255 256 258 258 256 257 261 265 264 261 265 273 277 278 281 283 286 288 288 280 278 289 302 315 316 325 331 338